Regional Weather Roundup
Issued by NWS Grand Forks, ND

Home | Current Version | Previous Version | Graphics & Text | Print | Product List | Glossary On
Versions: 1 2 3 4 5 6 7 8 9 10 11 12 13 14 15 16 17 18 19 20 21 22 23 24 25 26 27 28 29 30 31 32 33 34 35 36 37 38 39 40 41 42 43 44 45 46 47 48 49 50
000
ASUS43 KFGF 270510
RWRFGF
PRAIRIE TO PINES  WEATHER ROUNDUP
NATIONAL WEATHER SERVICE EASTERN NORTH DAKOTA/GRAND FORKS ND
1200 AM CDT WED MAY 27 2015

 **SATELLITE DATA USED TO AUGMENT SKY COVER AT AUTOMATED STATIONS**
 *****  WEATHER ACROSS EASTERN NORTH DAKOTA  *****

CITY           SKY/WX    TMP DP  RH WIND       PRES   REMARKS
GRAND FORKS    PTCLDY    65  51  60 NW7       29.77R
GRAND FRKS AFB MOCLDY    63  49  60 NW8       29.78R
GRAND FRKS NWS   N/A     61 N/A N/A NW5         N/A
DEVILS LAKE    CLEAR     61  45  55 W7        29.85R
FARGO          PTCLDY    59  53  80 S7        29.78F
WAHPETON ARPT  PTCLDY    61  50  67 W6        29.82S
$$

 ***** WEATHER ACROSS CENTRAL AND WESTERN NORTH DAKOTA  *****

CITY           SKY/WX    TMP DP  RH WIND       PRES   REMARKS
BISMARCK       CLEAR     61  51  70 CALM      29.91S
MINOT          CLEAR     61  46  57 SW10      29.86F
JAMESTOWN      PTCLDY    60  47  61 NW8       29.85R
MINOT AFB      PTCLDY    57  54  89 W9        29.86S
GARRISON         N/A     57  48  72 CALM      29.90S
WILLISTON      PTCLDY    66  44  45 SE7       29.90S
DICKINSON      PTCLDY    52  42  69 S8        29.93S
HETTINGER      CLEAR     53  46  77 CALM      29.97S
$$

 *****  OTHER AIRPORT OBSERVATIONS IN OUR AREA  *****

CITY           SKY/WX    TMP DP  RH WIND       PRES   REMARKS
WALHALLA         N/A     61  45  55 MISG      29.81R
GRAFTON AIRPOR FAIR      68  45  42 N8        29.78S
VALLEY CITY AR FAIR      64  48  55 NW10      29.84S
CANDO          FAIR      57  45  62 W6        29.86S
CAVALIER APRT  FAIR      68  46  45 N8        29.78S
GWINNER        NOT AVBL
SHEYENNE NWR     N/A     59  54  82 W5        29.95S
ROLLA          MOCLDY    57  41  54 W7        29.87S
 ***** THE ABOVE OBSERVATIONS ARE NON NWS ARE NOT QUALITY
       CONTROLLED AND MAY MIS-REPORT RAIN FOR SNOW...
$$

  *****  WEATHER ACROSS NORTHERN MINNESOTA  *****

CITY           SKY/WX    TMP DP  RH WIND       PRES   REMARKS
FLAG ISLAND    CLEAR     63  54  72 CALM      29.74S
WARROAD        CLEAR     61  54  77 S3        29.76F
ROSEAU         CLEAR     63  52  67 S7        29.76F
HALLOCK        CLEAR     64  45  48 N7        29.76S
THF RVR FALLS  CLEAR     63  54  72 S6        29.78S
BAUDETTE       PTCLDY    63  48  58 SW7       29.75F
WASKISH        MOCLDY    61  55  82 CALM      29.78S
CROOKSTON      PTCLDY    59  52  77 S9        29.78R
STEPHEN NDAWN    N/A     61  52  72 N3          N/A
GREENBUSH NDAW   N/A     64  54  68 W3          N/A
$$
  *****  WEATHER ACROSS CENTRAL AND WEST MINNESOTA  *****

CITY           SKY/WX    TMP DP  RH WIND       PRES   REMARKS
FOSSTON        PTCLDY    57  52  82 S7        29.80S
BEMIDJI        CLOUDY    56  49  78 CALM      29.78F
PARK RAPIDS    MOCLDY    63  54  72 W7        29.80F
ELBOW LAKE     FAIR      55  54  94 S6        29.84R
WADENA         MOCLDY    57  54  88 SW3       29.82S
DETROIT LAKES  PTCLDY    61  55  82 SW3       29.83S
MOORHEAD       CLEAR     61  54  77 S7        29.80F
FERGUS FALLS   PTCLDY    61  55  82 SW3       29.83S
MORRIS MN      MOCLDY    57  55  94 CALM      29.83S
STAPLES        MOCLDY    54  52  94 S5        29.82S
$$
  *****  WEATHER ELSEWHERE ACROSS MINNESOTA  *****

CITY           SKY/WX    TMP DP  RH WIND       PRES   REMARKS
DULUTH         CLOUDY    55  50  83 NW6       29.79S
INTRNTL FALLS  PTCLDY    53  50  89 SW3       29.75F
ELY            NOT AVBL
CLOQUET        CLOUDY    52  48  87 CALM      29.80S
WHEATON        PTCLDY    55  52  88 CALM      29.85S
BRAINERD       MOCLDY    56  54  93 CALM      29.82S
HIBBING        MOCLDY    50  48  93 CALM      29.80S
ALEXANDRIA     MOCLDY    57  53  86 SW6       29.85S
SAINT CLOUD    CLOUDY    55  54  96 NW5       29.82S
MINNEAPOLIS    CLOUDY    58  56  93 W6        29.82S
$$

  *****  WEATHER ACROSS SOUTH DAKOTA  *****

CITY           SKY/WX    TMP DP  RH WIND       PRES   REMARKS
SIOUX FALLS    CLOUDY    58  51  78 CALM      29.90R
BROOKINGS      MOCLDY    59  52  77 W5        29.89F
WATERTOWN      MOCLDY    61  50  67 NW5       29.87R
HURON          PTCLDY    57  49  74 SW3       29.90R
SISSETON         N/A     64  49  57 NW10      29.82S
ABERDEEN       PTCLDY    55  52  89 S5        29.88S
MITCHELL       PTCLDY    60  51  72 NW6       29.91R
PIERRE         PTCLDY    54  48  80 SE3       29.94R
MOBRIDGE       CLEAR     61  53  75 SE5       29.90S
RAPID CITY     PTCLDY    53  49  86 CALM      29.99S
$$

  *****  SOME WEATHER IN NEARBY STATES *****

CITY           SKY/WX    TMP DP  RH WIND       PRES   REMARKS
GLASGOW MT     PTCLDY    60  46  59 NW7       29.88S
GREAT FALLS MT PTCLDY    53  48  83 NE9       29.97S
CHEYENNE WY    CLEAR     51  47  86 S5        30.10S
SCOTTSBLUFF NE MOCLDY    57  52  83 E7        30.03S
OMAHA NE       CLEAR     58  56  93 NW3       29.93R
DES MOINES IA  CLOUDY    62  58  86 W8        29.88S
DAVENPORT IA   MOCLDY    64  60  87 SW8       29.86R
CHICAGO IL     MOCLDY    68  60  75 S12       29.83F
EAU CLAIRE WI  CLOUDY    57  55  93 NW8       29.77R
LA CROSSE WI   LGT RAIN  62  58  86 W6        29.78R
$$

  *****  SOME NATIONAL WEATHER *****

CITY           SKY/WX    TMP DP  RH WIND       PRES   REMARKS
LA GUARDIA NY  MOCLDY    74  61  63 SW12G21   30.16S
RALEIGH NC     MOCLDY    74  68  81 S9G20     30.24S
ATLANTA GA     MOCLDY    66  63  90 CALM      30.22F
NEW ORLEANS LA PTCLDY    77  72  84 SE3       30.08F
OKLAHOMA CITY  CLOUDY    72  62  71 CALM      30.00R
ALBUQUERQUE NM MOCLDY    65  42  43 SE10      30.12R
SALT LAKE CITY PTCLDY    56  49  77 E5        30.06R
LOS ANGELES CA PTCLDY    58  54  86 VRB3      30.00R
BOISE ID       MOCLDY    65  44  46 N9        29.92R THUNDER
SEATTLE WA     MOCLDY    63  51  65 CALM      30.03R
$$

*** WEATHER ACROSS MANITOBA...SASKATCHEWAN AND ONTARIO ***
                ***ONTARIO***

CITY           SKY/WX    TMP DP  RH WIND       PRES   REMARKS
GERALDTON      CLOUDY    55  52  88 SW2       29.74S
THUNDER BAY    MOCLDY    54  52  94 NW3       29.75F
SIOUX LOOKOUT  MOCLDY    57  50  77 VRB2      29.71F
TORONTO        MOCLDY    64  59  82 SE8       29.95S
BIG TROUT LK   CLOUDY    36  34  93 NE7       29.87R
PICKLE LAKE    NOT AVBL
DRYDEN         CLEAR     64  46  52 CALM      29.73F
KENORA         MOCLDY    61  50  67 W7        29.75S
$$
                *** MANITOBA***

CITY           SKY/WX    TMP DP  RH WIND       PRES   REMARKS
BRANDON        PTCLDY    59  50  72 E9        29.83S
DAUPHIN        CLEAR     54  46  76 N12G17    29.92R
ISLAND LAKE    CLOUDY    41  36  81 N10G22    29.95R
PILOT MOUND      N/A     63  43  48 N5          N/A
THE PAS        PTCLDY    45  39  81 NE3       30.02R
THOMPSON       CLEAR     32  25  74 N5        30.03R
WINNIPEG       PTCLDY    59  48  67 N12       29.81R
LYNN LAKE      CLEAR     39  25  56 N5        30.03R
CHURCHILL      PTCLDY    30  25  80 S9        29.99F WCI  22
GILLAM         CLEAR     28  23  80 E3        30.05R
$$
                ***SASKATCHEWAN***

CITY           SKY/WX    TMP DP  RH WIND       PRES   REMARKS
ESTEVAN        PTCLDY    57  46  67 SW7       29.88S
KINDERSLEY     TSTM      59  52  77 NW9       29.97R
LLOYDMINSTER   CLEAR     50  37  62 E8        29.99R
PRINCE ALBERT  PTCLDY    50  39  66 NE13      30.02R
REGINA         PTCLDY    66  46  48 NE10      29.87R
YORKTON        CLEAR     54  45  71 N13G18    29.92R
N. BATTLEFORD  CLEAR     54  39  58 E8        30.01R
LA RONGE       CLEAR     39  36  87 CALM      30.03R
SASKATOON      CLEAR     55  39  54 NE10      29.98R
SWIFT CURRENT  CLOUDY    64  41  42 N8        29.91S
$$
NOTE: THESE ARE AUTOMATED STATIONS WITH LIMITED QUALITY CONTROL
      "FAIR" INDICATES FEW OR NO CLOUDS BELOW 12,000 FEET WITH NO
      SIGNIFICANT WEATHER AND/OR OBSTRUCTIONS TO VISIBILITY.
      SKY/WX - SKY CONDITION AND SIGNIFICANT WEATHER.
      TMP - AIR TEMPERATURE.    DP   - DEWPOINT TEMPERATURE.
      RH  - RELATIVE HUMIDITY.  PRES - PRESSURE.
      HX  - HEAT INDEX.         WCI  - WIND CHILL INDEX.
$


USA.gov is the U.S. government's official web portal to all federal, state and local government web resources and services.